| time (UTC) | temp F | wind direction | speed MPH | gust MPH | rain 1hr in | rain 24hr in | rain mn in | humidity % | barometer mb |
| 20260508223117 | 72 | 118 | 0.0 | 1.0 | 0.00 | 0.00 | 0.00 | 68 | 1019.8 |
| 20260508222614 | 72 | 118 | 0.0 | 1.0 | 0.00 | 0.00 | 0.00 | 67 | 1019.8 |
| 20260508222111 | 72 | 118 | 0.0 | 1.0 | 0.00 | 0.00 | 0.00 | 67 | 1019.6 |
| 20260508221607 | 72 | 122 | 1.0 | 1.0 | 0.00 | 0.00 | 0.00 | 66 | 1019.7 |
| 20260508221103 | 73 | 109 | 1.0 | 2.0 | 0.00 | 0.00 | 0.00 | 64 | 1019.9 |
| 20260508220600 | 73 | 120 | 0.0 | 1.0 | 0.00 | 0.00 | 0.00 | 64 | 1019.8 |
| 20260508220056 | 73 | 122 | 1.0 | 1.0 | 0.00 | 0.00 | 0.00 | 62 | 1019.9 |
| 20260508215553 | 74 | 134 | 0.0 | 1.0 | 0.00 | 0.00 | 0.00 | 62 | 1020.1 |
| 20260508215050 | 73 | 175 | 2.0 | 2.0 | 0.00 | 0.00 | 0.00 | 58 | 1019.9 |
| 20260508214547 | 73 | 153 | 1.0 | 2.0 | 0.00 | 0.00 | 0.00 | 60 | 1019.7 |
| 20260508214043 | 73 | 151 | 0.0 | 2.0 | 0.00 | 0.00 | 0.00 | 60 | 1019.6 |
| 20260508213541 | 74 | 149 | 0.0 | 1.0 | 0.00 | 0.00 | 0.00 | 60 | 1020.0 |
| 20260508213037 | 73 | 182 | 1.0 | 2.0 | 0.00 | 0.00 | 0.00 | 60 | 1019.9 |
| 20260508212533 | 73 | 180 | 3.0 | 5.0 | 0.00 | 0.00 | 0.00 | 59 | 1020.0 |
| 20260508212030 | 73 | 153 | 1.0 | 2.0 | 0.00 | 0.00 | 0.00 | 59 | 1019.8 |
| 20260508211525 | 73 | 111 | 2.0 | 3.0 | 0.00 | 0.00 | 0.00 | 59 | 1019.9 |
| 20260508211022 | 74 | 144 | 2.0 | 2.0 | 0.00 | 0.00 | 0.00 | 59 | 1019.7 |
| 20260508210518 | 73 | 182 | 3.0 | 3.0 | 0.00 | 0.00 | 0.00 | 60 | 1019.7 |
| 20260508210016 | 73 | 142 | 2.0 | 5.0 | 0.00 | 0.00 | 0.00 | 59 | 1019.8 |
| 20260508205512 | 73 | 138 | 0.0 | 2.0 | 0.00 | 0.00 | 0.00 | 59 | 1020.0 |
| 20260508205008 | 73 | 152 | 2.0 | 3.0 | 0.00 | 0.00 | 0.00 | 59 | 1019.8 |
| 20260508204501 | 73 | 139 | 2.0 | 3.0 | 0.00 | 0.00 | 0.00 | 58 | 1020.0 |
| 20260508203955 | 73 | 147 | 5.0 | 5.0 | 0.00 | 0.00 | 0.00 | 58 | 1019.9 |
| 20260508203452 | 73 | 151 | 3.0 | 5.0 | 0.00 | 0.00 | 0.00 | 58 | 1020.1 |
| 20260508202948 | 73 | 183 | 4.0 | 5.0 | 0.00 | 0.00 | 0.00 | 58 | 1020.0 |
| 20260508202445 | 73 | 157 | 5.0 | 6.0 | 0.00 | 0.00 | 0.00 | 58 | 1020.1 |
| 20260508201942 | 73 | 186 | 2.0 | 3.0 | 0.00 | 0.00 | 0.00 | 57 | 1020.2 |
| 20260508201439 | 73 | 138 | 3.0 | 3.0 | 0.00 | 0.00 | 0.00 | 56 | 1020.5 |
| 20260508200935 | 73 | 132 | 1.0 | 3.0 | 0.00 | 0.00 | 0.00 | 57 | 1020.6 |
| 20260508200432 | 73 | 125 | 3.0 | 3.0 | 0.00 | 0.00 | 0.00 | 57 | 1020.9 |
| 20260508195927 | 73 | 160 | 1.0 | 2.0 | 0.00 | 0.00 | 0.00 | 56 | 1020.8 |
| 20260508195425 | 73 | 155 | 2.0 | 3.0 | 0.00 | 0.00 | 0.00 | 56 | 1021.0 |
| 20260508194921 | 74 | 142 | 2.0 | 2.0 | 0.00 | 0.00 | 0.00 | 55 | 1021.0 |
| 20260508194418 | 73 | 139 | 0.0 | 1.0 | 0.00 | 0.00 | 0.00 | 56 | 1021.0 |
| 20260508193915 | 72 | 107 | 1.0 | 3.0 | 0.00 | 0.00 | 0.00 | 56 | 1020.9 |
| 20260508193412 | 72 | 125 | 3.0 | 3.0 | 0.00 | 0.00 | 0.00 | 57 | 1021.2 |
| 20260508192908 | 72 | 123 | 2.0 | 2.0 | 0.00 | 0.00 | 0.00 | 58 | 1021.1 |
| 20260508192405 | 72 | 157 | 1.0 | 2.0 | 0.00 | 0.00 | 0.00 | 57 | 1021.3 |
| 20260508191902 | 72 | 174 | 3.0 | 5.0 | 0.00 | 0.00 | 0.00 | 57 | 1021.1 |
| 20260508191359 | 72 | 183 | 5.0 | 7.0 | 0.00 | 0.00 | 0.00 | 56 | 1021.3 |
| 20260508190850 | 72 | 144 | 2.0 | 5.0 | 0.00 | 0.00 | 0.00 | 57 | 1021.3 |
| 20260508190347 | 72 | 144 | 7.0 | 8.0 | 0.00 | 0.00 | 0.00 | 58 | 1021.0 |
| 20260508185843 | 72 | 171 | 3.0 | 3.0 | 0.00 | 0.00 | 0.00 | 57 | 1021.2 |
| 20260508185341 | 72 | 155 | 3.0 | 6.0 | 0.00 | 0.00 | 0.00 | 57 | 1021.5 |
| 20260508184838 | 72 | 101 | 3.0 | 8.0 | 0.00 | 0.00 | 0.00 | 59 | 1021.4 |
| 20260508184336 | 72 | 127 | 4.0 | 6.0 | 0.00 | 0.00 | 0.00 | 56 | 1021.5 |
| 20260508183832 | 72 | 145 | 3.0 | 3.0 | 0.00 | 0.00 | 0.00 | 55 | 1021.7 |
| 20260508183329 | 72 | 142 | 1.0 | 6.0 | 0.00 | 0.00 | 0.00 | 55 | 1021.3 |
| 20260508182824 | 72 | 86 | 3.0 | 5.0 | 0.00 | 0.00 | 0.00 | 56 | 1021.7 |
| 20260508182322 | 72 | 84 | 1.0 | 2.0 | 0.00 | 0.00 | 0.00 | 56 | 1021.6 |
| 20260508181817 | 71 | 80 | 3.0 | 5.0 | 0.00 | 0.00 | 0.00 | 58 | 1021.7 |
| 20260508181314 | 71 | 100 | 3.0 | 3.0 | 0.00 | 0.00 | 0.00 | 58 | 1021.7 |
| 20260508180811 | 71 | 169 | 2.0 | 5.0 | 0.00 | 0.00 | 0.00 | 56 | 1021.6 |
| 20260508180308 | 72 | 102 | 2.0 | 6.0 | 0.00 | 0.00 | 0.00 | 56 | 1021.7 |
| 20260508175804 | 73 | 80 | 3.0 | 3.0 | 0.00 | 0.00 | 0.00 | 54 | 1021.9 |
| 20260508175300 | 73 | 69 | 1.0 | 2.0 | 0.00 | 0.00 | 0.00 | 55 | 1021.9 |
| 20260508174758 | 72 | 94 | 3.0 | 5.0 | 0.00 | 0.00 | 0.00 | 55 | 1021.8 |
| 20260508174255 | 72 | 93 | 4.0 | 6.0 | 0.00 | 0.00 | 0.00 | 54 | 1022.1 |
| 20260508173747 | 73 | 117 | 3.0 | 6.0 | 0.00 | 0.00 | 0.00 | 54 | 1022.1 |
| 20260508173243 | 73 | 145 | 5.0 | 7.0 | 0.00 | 0.00 | 0.00 | 55 | 1022.3 |
| 20260508172739 | 72 | 69 | 2.0 | 7.0 | 0.00 | 0.00 | 0.00 | 55 | 1022.1 |
| 20260508172237 | 72 | 116 | 3.0 | 3.0 | 0.00 | 0.00 | 0.00 | 55 | 1022.2 |
| 20260508171733 | 71 | 179 | 3.0 | 6.0 | 0.00 | 0.00 | 0.00 | 56 | 1022.3 |
| 20260508171229 | 72 | 87 | 5.0 | 10.0 | 0.00 | 0.00 | 0.00 | 55 | 1022.7 |
| 20260508170726 | 71 | 116 | 1.0 | 2.0 | 0.00 | 0.00 | 0.00 | 56 | 1022.6 |
| 20260508170224 | 71 | 129 | 5.0 | 8.0 | 0.00 | 0.00 | 0.00 | 56 | 1022.4 |
| 20260508165721 | 71 | 96 | 4.0 | 7.0 | 0.00 | 0.00 | 0.00 | 56 | 1022.5 |
| 20260508165218 | 71 | 87 | 3.0 | 7.0 | 0.00 | 0.00 | 0.00 | 58 | 1022.8 |
| 20260508164714 | 70 | 136 | 5.0 | 7.0 | 0.00 | 0.00 | 0.00 | 55 | 1022.6 |
| 20260508164210 | 70 | 161 | 4.0 | 9.0 | 0.00 | 0.00 | 0.00 | 56 | 1022.5 |
| 20260508163709 | 70 | 110 | 7.0 | 10.0 | 0.00 | 0.00 | 0.00 | 58 | 1022.7 |
| 20260508163206 | 70 | 156 | 3.0 | 8.0 | 0.00 | 0.00 | 0.00 | 58 | 1022.8 |
| 20260508162701 | 70 | 153 | 7.0 | 11.0 | 0.00 | 0.00 | 0.00 | 58 | 1022.8 |
| 20260508162159 | 69 | 159 | 7.0 | 8.0 | 0.00 | 0.00 | 0.00 | 59 | 1023.0 |
| 20260508161656 | 71 | 104 | 4.0 | 8.0 | 0.00 | 0.00 | 0.00 | 59 | 1023.0 |
| 20260508161153 | 70 | 116 | 1.0 | 6.0 | 0.00 | 0.00 | 0.00 | 61 | 1023.1 |
| 20260508160651 | 69 | 123 | 6.0 | 8.0 | 0.00 | 0.00 | 0.00 | 61 | 1023.0 |
| 20260508160149 | 70 | 125 | 7.0 | 9.0 | 0.00 | 0.00 | 0.00 | 58 | 1023.0 |
| 20260508155646 | 70 | 88 | 3.0 | 5.0 | 0.00 | 0.00 | 0.00 | 61 | 1023.0 |
| 20260508155142 | 69 | 115 | 3.0 | 8.0 | 0.00 | 0.00 | 0.00 | 62 | 1023.0 |
| 20260508154640 | 68 | 55 | 7.0 | 14.0 | 0.00 | 0.00 | 0.00 | 61 | 1023.2 |
| 20260508154136 | 68 | 111 | 9.0 | 10.0 | 0.00 | 0.00 | 0.00 | 61 | 1023.2 |
| 20260508153633 | 69 | 101 | 7.0 | 9.0 | 0.00 | 0.00 | 0.00 | 60 | 1023.4 |
| 20260508153130 | 69 | 48 | 4.0 | 6.0 | 0.00 | 0.00 | 0.00 | 63 | 1023.6 |
| 20260508152627 | 68 | 120 | 7.0 | 9.0 | 0.00 | 0.00 | 0.00 | 62 | 1023.7 |
| 20260508152121 | 68 | 87 | 2.0 | 5.0 | 0.00 | 0.00 | 0.00 | 64 | 1023.4 |
| 20260508151619 | 68 | 93 | 7.0 | 9.0 | 0.00 | 0.00 | 0.00 | 65 | 1023.5 |
| 20260508151116 | 67 | 80 | 5.0 | 9.0 | 0.00 | 0.00 | 0.00 | 65 | 1023.6 |
| 20260508150613 | 66 | 88 | 5.0 | 8.0 | 0.00 | 0.00 | 0.00 | 66 | 1023.7 |
| 20260508150109 | 66 | 77 | 5.0 | 7.0 | 0.00 | 0.00 | 0.00 | 67 | 1023.6 |
| 20260508145605 | 66 | 83 | 4.0 | 9.0 | 0.00 | 0.00 | 0.00 | 68 | 1023.6 |
| 20260508145102 | 66 | 78 | 3.0 | 10.0 | 0.00 | 0.00 | 0.00 | 68 | 1023.8 |
| 20260508144559 | 66 | 91 | 3.0 | 9.0 | 0.00 | 0.00 | 0.00 | 69 | 1023.7 |
| 20260508144051 | 66 | 85 | 1.0 | 5.0 | 0.00 | 0.00 | 0.00 | 70 | 1023.7 |
| 20260508143548 | 66 | 125 | 5.0 | 6.0 | 0.00 | 0.00 | 0.00 | 69 | 1023.7 |
| 20260508143045 | 65 | 69 | 3.0 | 9.0 | 0.00 | 0.00 | 0.00 | 71 | 1023.6 |
| 20260508142542 | 66 | 67 | 2.0 | 6.0 | 0.00 | 0.00 | 0.00 | 70 | 1023.8 |
| 20260508142038 | 65 | 72 | 2.0 | 6.0 | 0.00 | 0.00 | 0.00 | 72 | 1023.8 |
| 20260508141535 | 66 | 90 | 2.0 | 3.0 | 0.00 | 0.00 | 0.00 | 72 | 1023.5 |
| 20260508141033 | 65 | 83 | 2.0 | 7.0 | 0.00 | 0.00 | 0.00 | 71 | 1023.3 |
| 20260508140530 | 65 | 120 | 1.0 | 2.0 | 0.00 | 0.00 | 0.00 | 73 | 1023.4 |
| 20260508140026 | 64 | 78 | 4.0 | 9.0 | 0.00 | 0.00 | 0.00 | 72 | 1023.6 |
| 20260508135522 | 64 | 101 | 8.0 | 9.0 | 0.00 | 0.00 | 0.00 | 72 | 1023.6 |
| 20260508135018 | 64 | 120 | 4.0 | 9.0 | 0.00 | 0.00 | 0.00 | 73 | 1023.6 |
| 20260508134515 | 64 | 101 | 3.0 | 5.0 | 0.00 | 0.00 | 0.00 | 75 | 1023.4 |
| 20260508134012 | 64 | 117 | 5.0 | 8.0 | 0.00 | 0.00 | 0.00 | 75 | 1023.4 |
| 20260508133509 | 64 | 34 | 9.0 | 14.0 | 0.00 | 0.00 | 0.00 | 77 | 1023.4 |
| 20260508133006 | 64 | 118 | 5.0 | 10.0 | 0.00 | 0.00 | 0.00 | 77 | 1023.1 |
| 20260508132504 | 64 | 88 | 3.0 | 6.0 | 0.00 | 0.00 | 0.00 | 78 | 1023.1 |
| 20260508132000 | 64 | 99 | 1.0 | 8.0 | 0.00 | 0.00 | 0.00 | 78 | 1023.2 |
| 20260508131455 | 64 | 68 | 3.0 | 10.0 | 0.00 | 0.00 | 0.00 | 79 | 1022.9 |
| 20260508130952 | 64 | 68 | 1.0 | 7.0 | 0.00 | 0.00 | 0.00 | 81 | 1022.9 |
| 20260508130450 | 63 | 90 | 3.0 | 11.0 | 0.00 | 0.00 | 0.00 | 81 | 1022.9 |
| 20260508125945 | 63 | 132 | 3.0 | 6.0 | 0.00 | 0.00 | 0.00 | 84 | 1022.7 |
| 20260508125441 | 62 | 113 | 3.0 | 5.0 | 0.00 | 0.00 | 0.00 | 84 | 1022.8 |
| 20260508124940 | 62 | 91 | 4.0 | 5.0 | 0.00 | 0.00 | 0.00 | 85 | 1022.8 |
| 20260508124437 | 62 | 96 | 4.0 | 6.0 | 0.00 | 0.00 | 0.00 | 86 | 1023.0 |
| 20260508123934 | 62 | 75 | 3.0 | 5.0 | 0.00 | 0.00 | 0.00 | 86 | 1022.2 |
| 20260508123433 | 62 | 77 | 3.0 | 5.0 | 0.00 | 0.00 | 0.00 | 87 | 1022.6 |
| 20260508122929 | 62 | 110 | 1.0 | 3.0 | 0.00 | 0.00 | 0.00 | 88 | 1022.6 |
| 20260508122426 | 62 | 72 | 2.0 | 2.0 | 0.00 | 0.00 | 0.00 | 88 | 1022.2 |
| 20260508121923 | 61 | 103 | 2.0 | 3.0 | 0.00 | 0.00 | 0.00 | 89 | 1022.4 |
| 20260508121421 | 61 | 127 | 1.0 | 2.0 | 0.00 | 0.00 | 0.00 | 89 | 1022.2 |
| 20260508120919 | 61 | 103 | 1.0 | 3.0 | 0.00 | 0.00 | 0.00 | 89 | 1021.8 |
| 20260508120416 | 61 | 96 | 2.0 | 2.0 | 0.00 | 0.00 | 0.00 | 90 | 1022.1 |
| 20260508115914 | 61 | 101 | 1.0 | 2.0 | 0.00 | 0.00 | 0.00 | 90 | 1022.2 |
| 20260508115412 | 61 | 137 | 1.0 | 2.0 | 0.00 | 0.00 | 0.00 | 90 | 1022.2 |
| 20260508114908 | 61 | 74 | 2.0 | 2.0 | 0.00 | 0.00 | 0.00 | 90 | 1022.0 |
| 20260508114405 | 61 | 54 | 1.0 | 2.0 | 0.00 | 0.00 | 0.00 | 90 | 1021.8 |
| 20260508113901 | 61 | 125 | 0.0 | 1.0 | 0.00 | 0.00 | 0.00 | 89 | 1021.8 |
| 20260508113359 | 61 | 98 | 2.0 | 2.0 | 0.00 | 0.00 | 0.00 | 89 | 1021.8 |
| 20260508112856 | 61 | 119 | 0.0 | 1.0 | 0.00 | 0.00 | 0.00 | 89 | 1021.5 |
| 20260508112353 | 61 | 96 | 1.0 | 2.0 | 0.00 | 0.00 | 0.00 | 89 | 1021.3 |
| 20260508111849 | 61 | 101 | 1.0 | 2.0 | 0.00 | 0.00 | 0.00 | 89 | 1021.5 |
| 20260508111346 | 61 | 98 | 2.0 | 2.0 | 0.00 | 0.00 | 0.00 | 88 | 1021.5 |
| 20260508110843 | 61 | 123 | 0.0 | 1.0 | 0.00 | 0.00 | 0.00 | 88 | 1021.3 |
| 20260508110341 | 61 | 122 | 0.0 | 1.0 | 0.00 | 0.00 | 0.00 | 88 | 1021.3 |
| 20260508105841 | 61 | 106 | 1.0 | 2.0 | 0.00 | 0.00 | 0.00 | 88 | 1021.2 |
| 20260508105338 | 61 | 83 | 2.0 | 3.0 | 0.00 | 0.00 | 0.00 | 88 | 1021.0 |
| 20260508104835 | 61 | 78 | 2.0 | 2.0 | 0.00 | 0.00 | 0.00 | 87 | 1021.1 |
| 20260508104331 | 61 | 64 | 2.0 | 2.0 | 0.00 | 0.00 | 0.00 | 87 | 1020.8 |
| 20260508103829 | 61 | 101 | 1.0 | 2.0 | 0.00 | 0.00 | 0.00 | 87 | 1020.6 |
| 20260508103325 | 61 | 110 | 1.0 | 2.0 | 0.00 | 0.00 | 0.00 | 87 | 1020.5 |
| 20260508102823 | 61 | 112 | 1.0 | 2.0 | 0.00 | 0.00 | 0.00 | 87 | 1020.5 |
| 20260508102321 | 61 | 89 | 1.0 | 3.0 | 0.00 | 0.00 | 0.00 | 87 | 1020.5 |
| 20260508101818 | 61 | 65 | 2.0 | 2.0 | 0.00 | 0.00 | 0.00 | 87 | 1020.3 |
| 20260508101315 | 61 | 113 | 1.0 | 2.0 | 0.00 | 0.00 | 0.00 | 87 | 1020.4 |
| 20260508100812 | 61 | 119 | 1.0 | 1.0 | 0.00 | 0.00 | 0.00 | 88 | 1020.2 |
| 20260508100311 | 61 | 103 | 1.0 | 2.0 | 0.00 | 0.00 | 0.00 | 88 | 1020.4 |
| 20260508095806 | 61 | 110 | 1.0 | 2.0 | 0.00 | 0.00 | 0.00 | 88 | 1020.3 |
| 20260508095306 | 61 | 123 | 0.0 | 1.0 | 0.00 | 0.00 | 0.00 | 87 | 1020.3 |
| 20260508094800 | 61 | 121 | 0.0 | 1.0 | 0.00 | 0.00 | 0.00 | 86 | 1020.3 |
| 20260508094258 | 61 | 116 | 1.0 | 1.0 | 0.00 | 0.00 | 0.00 | 86 | 1020.3 |
| 20260508093755 | 62 | 124 | 0.0 | 1.0 | 0.00 | 0.00 | 0.00 | 85 | 1020.1 |
| 20260508093252 | 62 | 116 | 0.0 | 2.0 | 0.00 | 0.00 | 0.00 | 85 | 1020.0 |
| 20260508092749 | 62 | 39 | 3.0 | 3.0 | 0.00 | 0.00 | 0.00 | 85 | 1020.2 |
| 20260508092247 | 62 | 102 | 1.0 | 2.0 | 0.00 | 0.00 | 0.00 | 85 | 1019.8 |
| 20260508091745 | 62 | 0 | 2.0 | 3.0 | 0.00 | 0.00 | 0.00 | 84 | 1020.1 |
| 20260508091242 | 62 | 68 | 2.0 | 3.0 | 0.00 | 0.00 | 0.00 | 84 | 1020.1 |
| 20260508090740 | 63 | 90 | 1.0 | 2.0 | 0.00 | 0.00 | 0.00 | 85 | 1019.6 |
| 20260508090237 | 63 | 50 | 2.0 | 2.0 | 0.00 | 0.00 | 0.00 | 84 | 1019.6 |
| 20260508085733 | 63 | 111 | 1.0 | 2.0 | 0.00 | 0.00 | 0.00 | 84 | 1019.3 |
| 20260508085230 | 63 | 336 | 2.0 | 5.0 | 0.00 | 0.00 | 0.00 | 84 | 1019.6 |
| 20260508084726 | 63 | 38 | 2.0 | 3.0 | 0.00 | 0.00 | 0.00 | 84 | 1019.4 |
| 20260508084224 | 63 | 87 | 2.0 | 2.0 | 0.00 | 0.00 | 0.00 | 84 | 1019.4 |
| 20260508083721 | 64 | 23 | 3.0 | 3.0 | 0.00 | 0.00 | 0.00 | 84 | 1019.3 |
| 20260508083219 | 64 | 60 | 2.0 | 2.0 | 0.00 | 0.00 | 0.00 | 84 | 1019.4 |
| 20260508082713 | 64 | 33 | 3.0 | 3.0 | 0.00 | 0.00 | 0.00 | 84 | 1019.5 |
| 20260508082211 | 64 | 73 | 2.0 | 2.0 | 0.00 | 0.00 | 0.00 | 84 | 1019.5 |
| 20260508081708 | 64 | 73 | 2.0 | 3.0 | 0.00 | 0.00 | 0.00 | 83 | 1019.6 |
| 20260508081205 | 64 | 81 | 1.0 | 3.0 | 0.00 | 0.00 | 0.00 | 84 | 1019.5 |
| 20260508080702 | 64 | 91 | 2.0 | 2.0 | 0.00 | 0.00 | 0.00 | 83 | 1019.7 |
| 20260508080200 | 64 | 353 | 3.0 | 5.0 | 0.00 | 0.00 | 0.00 | 82 | 1019.8 |
| 20260508075656 | 64 | 105 | 1.0 | 2.0 | 0.00 | 0.00 | 0.00 | 82 | 1019.3 |
| 20260508075153 | 64 | 89 | 2.0 | 2.0 | 0.00 | 0.00 | 0.00 | 82 | 1019.8 |
| 20260508074651 | 65 | 26 | 2.0 | 5.0 | 0.00 | 0.00 | 0.00 | 82 | 1019.9 |
| 20260508074148 | 64 | 349 | 4.0 | 6.0 | 0.00 | 0.00 | 0.00 | 81 | 1020.1 |
| 20260508073645 | 65 | 98 | 1.0 | 2.0 | 0.00 | 0.00 | 0.00 | 82 | 1019.7 |
| 20260508073143 | 65 | 1 | 3.0 | 5.0 | 0.00 | 0.00 | 0.00 | 82 | 1019.8 |
| 20260508072638 | 65 | 353 | 3.0 | 3.0 | 0.00 | 0.00 | 0.00 | 82 | 1019.8 |
| 20260508072136 | 65 | 88 | 1.0 | 2.0 | 0.00 | 0.00 | 0.00 | 82 | 1019.7 |
| 20260508071633 | 65 | 54 | 2.0 | 2.0 | 0.00 | 0.00 | 0.00 | 82 | 1019.8 |
| 20260508071131 | 65 | 6 | 2.0 | 3.0 | 0.00 | 0.00 | 0.00 | 81 | 1019.7 |
| 20260508070628 | 65 | 46 | 2.0 | 2.0 | 0.00 | 0.00 | 0.00 | 81 | 1019.8 |
| 20260508070127 | 65 | 60 | 2.0 | 2.0 | 0.00 | 0.00 | 0.00 | 82 | 1019.8 |
| 20260508065624 | 65 | 33 | 2.0 | 3.0 | 0.00 | 0.00 | 0.00 | 82 | 1019.9 |
| 20260508065122 | 65 | 74 | 2.0 | 2.0 | 0.00 | 0.00 | 0.00 | 82 | 1019.9 |
| 20260508064620 | 65 | 351 | 3.0 | 3.0 | 0.00 | 0.00 | 0.00 | 82 | 1019.8 |
| 20260508064118 | 65 | 60 | 2.0 | 3.0 | 0.00 | 0.00 | 0.00 | 83 | 1019.9 |
| 20260508063615 | 65 | 357 | 2.0 | 3.0 | 0.00 | 0.00 | 0.00 | 83 | 1020.0 |
| 20260508063113 | 65 | 24 | 3.0 | 3.0 | 0.00 | 0.00 | 0.00 | 83 | 1020.1 |
| 20260508062610 | 65 | 0 | 2.0 | 3.0 | 0.00 | 0.00 | 0.00 | 84 | 1020.2 |
| 20260508062106 | 66 | 358 | 2.0 | 2.0 | 0.00 | 0.00 | 0.00 | 83 | 1020.2 |
| 20260508061604 | 66 | 351 | 3.0 | 3.0 | 0.00 | 0.00 | 0.00 | 83 | 1020.0 |
| 20260508061101 | 66 | 89 | 2.0 | 2.0 | 0.00 | 0.00 | 0.00 | 83 | 1020.1 |
| 20260508060558 | 66 | 3 | 2.0 | 3.0 | 0.00 | 0.00 | 0.00 | 82 | 1020.0 |
| 20260508060055 | 66 | 3 | 3.0 | 3.0 | 0.00 | 0.00 | 0.00 | 83 | 1020.1 |
| 20260508055550 | 66 | 358 | 3.0 | 6.0 | 0.00 | 0.00 | 0.00 | 83 | 1020.0 |
| 20260508055048 | 66 | 13 | 3.0 | 5.0 | 0.00 | 0.00 | 0.00 | 84 | 1020.1 |
| 20260508054544 | 66 | 336 | 3.0 | 6.0 | 0.00 | 0.00 | 0.00 | 85 | 1020.0 |
| 20260508054041 | 66 | 350 | 3.0 | 5.0 | 0.00 | 0.00 | 0.00 | 85 | 1020.1 |
| 20260508053538 | 66 | 355 | 5.0 | 6.0 | 0.00 | 0.00 | 0.00 | 85 | 1020.1 |
| 20260508053036 | 66 | 345 | 3.0 | 3.0 | 0.00 | 0.00 | 0.00 | 86 | 1020.1 |
| 20260508052533 | 67 | 52 | 2.0 | 5.0 | 0.00 | 0.00 | 0.00 | 86 | 1020.1 |
| 20260508052030 | 67 | 357 | 3.0 | 5.0 | 0.00 | 0.00 | 0.00 | 87 | 1019.9 |
| 20260508051526 | 67 | 1 | 3.0 | 6.0 | 0.00 | 0.00 | 0.00 | 87 | 1020.1 |
| 20260508051021 | 67 | 351 | 2.0 | 3.0 | 0.00 | 0.00 | 0.00 | 88 | 1020.0 |
| 20260508050513 | 67 | 352 | 3.0 | 3.0 | 0.00 | 0.00 | 0.00 | 88 | 1019.9 |
| 20260508050010 | 67 | 337 | 5.0 | 7.0 | 0.00 | 0.00 | 0.00 | 88 | 1019.8 |
| 20260508045506 | 67 | 109 | 1.0 | 2.0 | 0.00 | 0.00 | 0.00 | 88 | 1019.8 |
| 20260508045004 | 68 | 72 | 1.0 | 3.0 | 0.00 | 0.00 | 0.00 | 88 | 1019.8 |
| 20260508044501 | 68 | 350 | 4.0 | 5.0 | 0.00 | 0.00 | 0.00 | 87 | 1019.9 |
| 20260508043956 | 68 | 14 | 3.0 | 3.0 | 0.00 | 0.00 | 0.00 | 87 | 1019.7 |
| 20260508043453 | 68 | 355 | 5.0 | 5.0 | 0.00 | 0.00 | 0.00 | 86 | 1019.7 |
| 20260508042949 | 68 | 340 | 5.0 | 6.0 | 0.00 | 0.00 | 0.00 | 87 | 1019.6 |
| 20260508042448 | 68 | 44 | 3.0 | 11.0 | 0.00 | 0.00 | 0.00 | 87 | 1019.8 |
| 20260508041944 | 69 | 6 | 6.0 | 7.0 | 0.00 | 0.00 | 0.00 | 89 | 1019.5 |
| 20260508041441 | 69 | 326 | 4.0 | 7.0 | 0.00 | 0.00 | 0.00 | 90 | 1019.4 |
| 20260508040938 | 69 | 350 | 8.0 | 13.0 | 0.00 | 0.00 | 0.00 | 92 | 1019.6 |
| 20260508040435 | 69 | 1 | 5.0 | 8.0 | 0.00 | 0.00 | 0.00 | 94 | 1019.6 |
| 20260508035933 | 69 | 354 | 6.0 | 10.0 | 0.00 | 0.40 | 0.40 | 95 | 1019.4 |
| 20260508035429 | 69 | 356 | 7.0 | 11.0 | 0.00 | 0.40 | 0.40 | 96 | 1019.2 |
| 20260508034926 | 70 | 348 | 5.0 | 8.0 | 0.00 | 0.40 | 0.40 | 97 | 1019.1 |
| 20260508034424 | 70 | 343 | 6.0 | 9.0 | 0.00 | 0.40 | 0.40 | 97 | 1019.4 |
| 20260508033920 | 70 | 355 | 4.0 | 6.0 | 0.00 | 0.40 | 0.40 | 97 | 1019.4 |
| 20260508033418 | 70 | 352 | 7.0 | 10.0 | 0.00 | 0.40 | 0.40 | 97 | 1019.4 |
| 20260508032915 | 71 | 38 | 2.0 | 6.0 | 0.00 | 0.40 | 0.40 | 98 | 1019.2 |
| 20260508032412 | 71 | 229 | 3.0 | 7.0 | 0.00 | 0.40 | 0.40 | 98 | 1019.1 |
| 20260508031909 | 71 | 5 | 7.0 | 9.0 | 0.00 | 0.40 | 0.40 | 98 | 1019.2 |
| 20260508031407 | 71 | 11 | 5.0 | 6.0 | 0.00 | 0.40 | 0.40 | 98 | 1019.0 |
| 20260508030902 | 71 | 150 | 0.0 | 0.0 | 0.00 | 0.40 | 0.40 | 98 | 1018.8 |
| 20260508030359 | 71 | 165 | 0.0 | 0.0 | 0.00 | 0.40 | 0.40 | 98 | 1018.8 |
| 20260508025856 | 71 | 135 | 0.0 | 2.0 | 0.00 | 0.40 | 0.40 | 98 | 1018.8 |
| 20260508025353 | 71 | 167 | 0.0 | 1.0 | 0.00 | 0.40 | 0.40 | 98 | 1018.6 |
| 20260508024850 | 71 | 166 | 0.0 | 1.0 | 0.00 | 0.40 | 0.40 | 98 | 1018.4 |
| 20260508024346 | 71 | 220 | 2.0 | 5.0 | 0.00 | 0.40 | 0.40 | 98 | 1018.5 |
| 20260508023838 | 71 | 188 | 1.0 | 2.0 | 0.00 | 0.40 | 0.40 | 97 | 1018.6 |
| 20260508023335 | 71 | 176 | 2.0 | 3.0 | 0.00 | 0.40 | 0.40 | 97 | 1018.5 |
| 20260508022831 | 71 | 182 | 1.0 | 1.0 | 0.00 | 0.40 | 0.40 | 97 | 1018.4 |
| 20260508022327 | 71 | 180 | 1.0 | 2.0 | 0.00 | 0.40 | 0.40 | 97 | 1018.3 |
| 20260508021824 | 71 | 181 | 1.0 | 2.0 | 0.00 | 0.40 | 0.40 | 97 | 1018.2 |
| 20260508021320 | 71 | 188 | 1.0 | 2.0 | 0.00 | 0.40 | 0.40 | 97 | 1018.0 |
| 20260508020816 | 71 | 173 | 0.0 | 2.0 | 0.00 | 0.40 | 0.40 | 97 | 1018.2 |
| 20260508020314 | 71 | 172 | 1.0 | 2.0 | 0.00 | 0.40 | 0.40 | 97 | 1018.1 |
| 20260508015811 | 71 | 178 | 1.0 | 2.0 | 0.00 | 0.40 | 0.40 | 97 | 1018.1 |
| 20260508015309 | 71 | 176 | 1.0 | 1.0 | 0.00 | 0.40 | 0.40 | 96 | 1018.2 |
| 20260508014805 | 71 | 176 | 0.0 | 2.0 | 0.00 | 0.40 | 0.40 | 96 | 1017.8 |
| 20260508014302 | 71 | 186 | 2.0 | 2.0 | 0.00 | 0.40 | 0.40 | 96 | 1017.7 |
| 20260508013757 | 71 | 192 | 2.0 | 2.0 | 0.00 | 0.40 | 0.40 | 96 | 1017.9 |
| 20260508013254 | 71 | 181 | 1.0 | 2.0 | 0.00 | 0.40 | 0.40 | 96 | 1017.7 |
| 20260508012752 | 71 | 185 | 1.0 | 1.0 | 0.00 | 0.40 | 0.40 | 96 | 1017.7 |
| 20260508012249 | 71 | 185 | 1.0 | 2.0 | 0.00 | 0.40 | 0.40 | 95 | 1017.6 |
| 20260508011747 | 72 | 184 | 1.0 | 2.0 | 0.00 | 0.40 | 0.40 | 95 | 1017.4 |
| 20260508011243 | 72 | 183 | 1.0 | 1.0 | 0.00 | 0.40 | 0.40 | 95 | 1017.5 |
| 20260508010741 | 72 | 180 | 1.0 | 1.0 | 0.00 | 0.40 | 0.40 | 95 | 1017.5 |
| 20260508010239 | 72 | 176 | 1.0 | 2.0 | 0.00 | 0.40 | 0.40 | 94 | 1017.0 |
| 20260508005735 | 72 | 175 | 1.0 | 1.0 | 0.00 | 0.40 | 0.40 | 94 | 1017.5 |
| 20260508005232 | 72 | 171 | 1.0 | 1.0 | 0.00 | 0.40 | 0.40 | 94 | 1017.4 |
| 20260508004727 | 73 | 171 | 0.0 | 0.0 | 0.00 | 0.40 | 0.40 | 93 | 1017.6 |
| 20260508004224 | 73 | 171 | 0.0 | 2.0 | 0.00 | 0.40 | 0.40 | 93 | 1017.3 |
| 20260508003721 | 73 | 171 | 0.0 | 2.0 | 0.00 | 0.40 | 0.40 | 93 | 1017.1 |
| 20260508003219 | 73 | 173 | 0.0 | 1.0 | 0.00 | 0.40 | 0.40 | 93 | 1017.2 |
| 20260508002715 | 73 | 187 | 1.0 | 2.0 | 0.00 | 0.40 | 0.40 | 92 | 1017.0 |
| 20260508002212 | 73 | 152 | 1.0 | 1.0 | 0.00 | 0.40 | 0.40 | 92 | 1017.0 |
| 20260508001708 | 74 | 205 | 2.0 | 5.0 | 0.00 | 0.40 | 0.40 | 92 | 1017.0 |
| 20260508001203 | 74 | 262 | 4.0 | 5.0 | 0.00 | 0.40 | 0.40 | 91 | 1016.8 |
| 20260508000700 | 74 | 182 | 1.0 | 2.0 | 0.00 | 0.40 | 0.40 | 91 | 1016.8 |
| 20260508000157 | 74 | 192 | 2.0 | 3.0 | 0.00 | 0.40 | 0.40 | 90 | 1017.2 |
| 20260507235653 | 74 | 278 | 2.0 | 3.0 | 0.00 | 0.40 | 0.40 | 90 | 1017.1 |
| 20260507235151 | 75 | 221 | 3.0 | 5.0 | 0.00 | 0.40 | 0.40 | 90 | 1017.0 |
| 20260507234648 | 75 | 223 | 2.0 | 3.0 | 0.00 | 0.40 | 0.40 | 89 | 1017.0 |
| 20260507234144 | 75 | 338 | 3.0 | 3.0 | 0.00 | 0.40 | 0.40 | 89 | 1016.9 |
| 20260507233641 | 75 | 223 | 1.0 | 9.0 | 0.00 | 0.40 | 0.40 | 89 | 1016.8 |
| 20260507233140 | 75 | 231 | 2.0 | 6.0 | 0.00 | 0.40 | 0.40 | 88 | 1016.7 |
| 20260507232636 | 75 | 216 | 4.0 | 8.0 | 0.00 | 0.40 | 0.40 | 88 | 1016.7 |
| 20260507232133 | 76 | 136 | 1.0 | 3.0 | 0.00 | 0.40 | 0.40 | 88 | 1016.8 |
| 20260507231629 | 75 | 331 | 4.0 | 6.0 | 0.00 | 0.40 | 0.40 | 88 | 1016.8 |
| 20260507231127 | 75 | 342 | 2.0 | 6.0 | 0.00 | 0.40 | 0.40 | 88 | 1016.7 |
| 20260507230623 | 76 | 244 | 3.0 | 5.0 | 0.00 | 0.40 | 0.40 | 88 | 1016.9 |
| 20260507230121 | 76 | 204 | 2.0 | 5.0 | 0.00 | 0.40 | 0.40 | 88 | 1016.7 |
| 20260507225615 | 76 | 238 | 2.0 | 2.0 | 0.00 | 0.40 | 0.40 | 88 | 1016.8 |
| 20260507225112 | 76 | 266 | 4.0 | 5.0 | 0.00 | 0.40 | 0.40 | 88 | 1016.6 |
| 20260507224607 | 76 | 310 | 4.0 | 7.0 | 0.00 | 0.40 | 0.40 | 88 | 1016.6 |
| 20260507224104 | 76 | 273 | 2.0 | 9.0 | 0.00 | 0.40 | 0.40 | 88 | 1016.5 |
| 20260507223600 | 76 | 210 | 2.0 | 3.0 | 0.00 | 0.40 | 0.40 | 89 | 1016.4 |